Location: ??????
(38.1303°N, 24.0039°E)
Time: 04:14:18
(UTC+00:00)

DELTA 2 DEB (DPAF) - Pass Details

Date: 20 June 2021
Orbit: 640 x 644 km, 98.4° (Epoch: 05 August)

Event Time Altitude Azimuth Distance (km) Brightness Sun altitude
Exits shadow 01:08:16 24° 176° (S) 1,319 5.3 -17.6°
Maximum altitude 01:10:53 75° 258° (WSW) 671 4.0 -17.2°
Drops below altitude 10° 01:15:21 10° 343° (NNW) 2,046 7.2 -16.7°
Sets 01:17:34 0° 346° (NNW) 2,959 8.1 -16.4°
